Location: Alladorf
(49.9620°N, 11.3790°E)
Time: 21:17:35
(UTC+00:00)

Cosmos 1295 Rocket - Pass Details

Date: 29 November 2020
Orbit: 945 x 993 km, 82.9° (Epoch: 24 January)

Event Time Altitude Azimuth Distance (km) Brightness Sun altitude
Rises 05:41:01 0° 198° (SSW) 3,604 7.5 -10.5°
Reaches altitude 10° 05:43:31 10° 202° (SSW) 2,661 6.8 -10.1°
Maximum altitude 05:49:32 63° 283° (WNW) 1,053 4.4 -9.2°
Drops below altitude 10° 05:55:36 10° 5° (N) 2,682 6.6 -8.3°
Sets 05:58:09 0° 8° (N) 3,635 7.3 -8.0°
